DLH2X EDDM-EDDB

Flight info

Callsign DLH2X
Flight time 0h 46m
Altitude 29000
Route AKINI1N AKINI Y104 MAMOR L132 RUDNO T203 TIVDA DCT ETVIS DCT NAVEK DCT GAVLI T203 ATGUP ATGUP1R
Aircraft A321/M-SDE3FGHIRWY/LB1

Departure

Time 2026-05-07 05:30
Airport Munich Airport (EDDM)

Arrival

Time 2026-05-07 06:16
Airport Berlin Brandenburg Airport (EDDB)
Time Latitude Longitude Altitude Speed Heading
2026-05-07 04:59 48.35489 11.79290 1471 ft 0 kts 263°
2026-05-07 05:06 48.35489 11.79291 1444 ft 0 kts 263°
2026-05-07 05:07 48.35489 11.79292 1444 ft 0 kts 263°
2026-05-07 05:07 48.35489 11.79293 1471 ft 1 kts 263°
2026-05-07 05:07 48.35490 11.79298 1471 ft 0 kts 263°
2026-05-07 05:08 48.35492 11.79320 1462 ft 2 kts 263°
2026-05-07 05:09 48.35494 11.79344 1465 ft 2 kts 263°
2026-05-07 05:09 48.35496 11.79369 1462 ft 2 kts 263°
2026-05-07 05:09 48.35498 11.79393 1462 ft 2 kts 263°
2026-05-07 05:09 48.35500 11.79417 1462 ft 2 kts 263°
2026-05-07 05:10 48.35498 11.79441 1464 ft 2 kts 323°
2026-05-07 05:10 48.35483 11.79450 1464 ft 2 kts 358°
2026-05-07 05:10 48.35467 11.79451 1467 ft 2 kts 354°
2026-05-07 05:10 48.35460 11.79452 1469 ft 0 kts 354°
2026-05-07 05:11 48.35477 11.79449 1467 ft 7 kts 354°
2026-05-07 05:11 48.35550 11.79439 1471 ft 12 kts 354°
2026-05-07 05:12 48.35636 11.79423 1464 ft 13 kts 351°
2026-05-07 05:12 48.35729 11.79403 1468 ft 14 kts 353°
2026-05-07 05:12 48.35829 11.79388 1463 ft 15 kts 354°
2026-05-07 05:12 48.35930 11.79348 1467 ft 16 kts 340°
2026-05-07 05:13 48.36039 11.79326 1464 ft 16 kts 353°
2026-05-07 05:13 48.36145 11.79309 1462 ft 15 kts 353°
2026-05-07 05:13 48.36210 11.79405 1463 ft 15 kts 83°
2026-05-07 05:13 48.36222 11.79568 1460 ft 16 kts 83°
2026-05-07 05:14 48.36236 11.79741 1468 ft 17 kts 83°
2026-05-07 05:14 48.36249 11.79923 1468 ft 18 kts 84°
2026-05-07 05:14 48.36262 11.80114 1471 ft 19 kts 83°
2026-05-07 05:14 48.36280 11.80312 1459 ft 19 kts 84°
2026-05-07 05:15 48.36294 11.80515 1463 ft 20 kts 84°
2026-05-07 05:15 48.36310 11.80720 1465 ft 20 kts 83°
2026-05-07 05:15 48.36327 11.80932 1469 ft 21 kts 83°
2026-05-07 05:15 48.36343 11.81150 1471 ft 21 kts 84°
2026-05-07 05:16 48.36360 11.81377 1467 ft 22 kts 83°
2026-05-07 05:16 48.36377 11.81609 1468 ft 23 kts 84°
2026-05-07 05:16 48.36396 11.81843 1466 ft 21 kts 86°
2026-05-07 05:16 48.36392 11.82049 1471 ft 19 kts 81°
2026-05-07 05:17 48.36454 11.82139 1469 ft 10 kts 355°
2026-05-07 05:17 48.36484 11.82133 1463 ft 0 kts 352°
2026-05-07 05:28 48.36489 11.82132 1470 ft 4 kts 352°
2026-05-07 05:29 48.36577 11.82113 1461 ft 20 kts 351°
2026-05-07 05:29 48.36675 11.81950 1463 ft 23 kts 274°
2026-05-07 05:29 48.36645 11.81545 1465 ft 68 kts 263°
2026-05-07 05:29 48.36565 11.80512 1460 ft 128 kts 263°
2026-05-07 05:30 48.36445 11.78937 1477 ft 173 kts 264°
2026-05-07 05:30 48.36310 11.77089 2018 ft 179 kts 263°
2026-05-07 05:30 48.36256 11.75216 2763 ft 185 kts 276°
2026-05-07 05:30 48.36729 11.73320 2979 ft 208 kts 302°
2026-05-07 05:31 48.37746 11.71572 3139 ft 236 kts 311°
2026-05-07 05:31 48.38966 11.69780 3589 ft 250 kts 314°
2026-05-07 05:31 48.40259 11.67992 4309 ft 256 kts 315°
2026-05-07 05:31 48.41588 11.66190 5017 ft 259 kts 315°
2026-05-07 05:32 48.43020 11.64510 5687 ft 266 kts 329°
2026-05-07 05:32 48.44815 11.63692 6344 ft 277 kts 353°
2026-05-07 05:32 48.46752 11.64043 6966 ft 287 kts 15°
2026-05-07 05:32 48.48557 11.65365 7592 ft 294 kts 33°
2026-05-07 05:33 48.50066 11.67481 8225 ft 300 kts 52°
2026-05-07 05:33 48.51300 11.70035 8867 ft 303 kts 54°
2026-05-07 05:33 48.52545 11.72631 9526 ft 307 kts 54°
2026-05-07 05:33 48.53806 11.75246 10149 ft 310 kts 54°
2026-05-07 05:34 48.55082 11.77887 10752 ft 313 kts 54°
2026-05-07 05:34 48.56368 11.80551 11366 ft 315 kts 54°
2026-05-07 05:34 48.57664 11.83244 11987 ft 318 kts 54°
2026-05-07 05:34 48.58970 11.85953 12603 ft 320 kts 54°
2026-05-07 05:35 48.60285 11.88687 13220 ft 323 kts 54°
2026-05-07 05:35 48.61616 11.91448 13783 ft 328 kts 53°
2026-05-07 05:35 48.63293 11.93897 13903 ft 345 kts 32°
2026-05-07 05:35 48.65407 11.95792 14031 ft 362 kts 29°
2026-05-07 05:36 48.67607 11.97711 14157 ft 378 kts 29°
2026-05-07 05:36 48.69960 11.99757 14290 ft 393 kts 29°
2026-05-07 05:36 48.72323 12.01819 14628 ft 400 kts 29°
2026-05-07 05:36 48.74742 12.03942 15085 ft 404 kts 29°
2026-05-07 05:37 48.77180 12.06094 15590 ft 407 kts 29°
2026-05-07 05:37 48.79631 12.08266 16066 ft 410 kts 29°
2026-05-07 05:37 48.82103 12.10458 16550 ft 413 kts 29°
2026-05-07 05:37 48.84589 12.12659 17025 ft 416 kts 29°
2026-05-07 05:38 48.87096 12.14877 17476 ft 418 kts 29°
2026-05-07 05:38 48.89623 12.17114 17924 ft 421 kts 29°
2026-05-07 05:38 48.92161 12.19366 18356 ft 424 kts 29°
2026-05-07 05:38 48.94708 12.21634 18750 ft 426 kts 29°
2026-05-07 05:39 48.97275 12.23926 19119 ft 429 kts 29°
2026-05-07 05:39 48.99853 12.26228 19490 ft 432 kts 29°
2026-05-07 05:39 49.02456 12.28551 19875 ft 434 kts 30°
2026-05-07 05:39 49.05066 12.30883 20264 ft 437 kts 30°
2026-05-07 05:40 49.07701 12.33227 20644 ft 439 kts 28°
2026-05-07 05:40 49.10498 12.35124 21000 ft 441 kts 20°
2026-05-07 05:40 49.13356 12.36832 21372 ft 444 kts 20°
2026-05-07 05:40 49.16248 12.38554 21751 ft 446 kts 20°
2026-05-07 05:41 49.19147 12.40273 22112 ft 449 kts 20°
2026-05-07 05:41 49.22068 12.42010 22493 ft 451 kts 20°
2026-05-07 05:41 49.24999 12.43760 22865 ft 454 kts 20°
2026-05-07 05:41 49.27944 12.45526 23238 ft 456 kts 20°
2026-05-07 05:42 49.30905 12.47308 23580 ft 458 kts 20°
2026-05-07 05:42 49.33874 12.49098 23881 ft 461 kts 20°
2026-05-07 05:42 49.36868 12.50903 24174 ft 463 kts 20°
2026-05-07 05:42 49.39872 12.52716 24465 ft 465 kts 20°
2026-05-07 05:43 49.42894 12.54537 24753 ft 468 kts 20°
2026-05-07 05:43 49.45936 12.56368 25036 ft 471 kts 20°
2026-05-07 05:43 49.48996 12.58211 25312 ft 473 kts 20°
2026-05-07 05:43 49.52067 12.60066 25591 ft 476 kts 20°
2026-05-07 05:44 49.55160 12.61938 25856 ft 479 kts 20°
2026-05-07 05:44 49.58265 12.63815 26111 ft 482 kts 20°
2026-05-07 05:44 49.61360 12.65689 26375 ft 485 kts 20°
2026-05-07 05:44 49.64501 12.67601 26630 ft 487 kts 21°
2026-05-07 05:45 49.67670 12.69534 26822 ft 491 kts 21°
2026-05-07 05:45 49.70860 12.71484 26962 ft 496 kts 21°
2026-05-07 05:45 49.74079 12.73456 27089 ft 500 kts 21°
2026-05-07 05:45 49.77318 12.75442 27222 ft 503 kts 21°
2026-05-07 05:46 49.80586 12.77444 27352 ft 506 kts 21°
2026-05-07 05:46 49.83873 12.79459 27490 ft 508 kts 21°
2026-05-07 05:46 49.87165 12.81485 27623 ft 510 kts 21°
2026-05-07 05:46 49.90465 12.83525 27754 ft 512 kts 21°
2026-05-07 05:47 49.93786 12.85580 27889 ft 514 kts 21°
2026-05-07 05:47 49.97114 12.87638 28062 ft 515 kts 21°
2026-05-07 05:47 50.00451 12.89700 28269 ft 516 kts 21°
2026-05-07 05:47 50.03783 12.91758 28481 ft 516 kts 21°
2026-05-07 05:48 50.07116 12.93820 28689 ft 516 kts 21°
2026-05-07 05:48 50.10454 12.95889 28868 ft 517 kts 21°
2026-05-07 05:48 50.13793 12.97961 28897 ft 517 kts 21°
2026-05-07 05:49 50.20485 13.02127 28892 ft 518 kts 21°
2026-05-07 05:49 50.27171 13.06313 28892 ft 518 kts 21°
2026-05-07 05:50 50.33865 13.10514 28881 ft 518 kts 21°
2026-05-07 05:50 50.40563 13.14724 28872 ft 518 kts 21°
2026-05-07 05:51 50.46123 13.18237 28872 ft 519 kts 21°
2026-05-07 05:51 50.53944 13.23193 28878 ft 518 kts 22°
2026-05-07 05:52 50.59502 13.26721 28890 ft 518 kts 22°
2026-05-07 05:52 50.66184 13.30978 28883 ft 517 kts 22°
2026-05-07 05:53 50.72852 13.35233 28886 ft 517 kts 22°
2026-05-07 05:53 50.79520 13.39500 28887 ft 516 kts 22°
2026-05-07 05:54 50.86164 13.43776 28888 ft 516 kts 22°
2026-05-07 05:54 50.92835 13.47958 28899 ft 515 kts 17°
2026-05-07 05:55 50.99839 13.50218 28907 ft 514 kts
2026-05-07 05:55 51.06890 13.52093 28911 ft 514 kts
2026-05-07 05:56 51.13930 13.54011 28441 ft 509 kts
2026-05-07 05:56 51.17413 13.54964 27443 ft 507 kts
2026-05-07 05:56 51.20833 13.55894 26528 ft 504 kts
2026-05-07 05:56 51.24258 13.56823 25928 ft 495 kts
2026-05-07 05:57 51.27625 13.57736 25300 ft 487 kts
2026-05-07 05:57 51.30937 13.58634 24656 ft 479 kts
2026-05-07 05:57 51.34194 13.59519 24031 ft 472 kts
2026-05-07 05:57 51.37412 13.60394 23427 ft 465 kts
2026-05-07 05:58 51.40582 13.61260 22685 ft 459 kts
2026-05-07 05:58 51.43754 13.62130 21921 ft 454 kts
2026-05-07 05:58 51.46817 13.62969 21194 ft 450 kts
2026-05-07 05:58 51.49883 13.63812 20453 ft 445 kts
2026-05-07 05:59 51.52922 13.64654 19723 ft 441 kts
2026-05-07 05:59 51.55929 13.65490 19132 ft 434 kts
2026-05-07 05:59 51.58885 13.66366 18403 ft 431 kts 11°
2026-05-07 05:59 51.61803 13.67054 18127 ft 416 kts
2026-05-07 06:00 51.64626 13.66885 18017 ft 398 kts 356°
2026-05-07 06:00 51.67343 13.66224 17169 ft 398 kts 341°
2026-05-07 06:00 51.69871 13.64341 16068 ft 405 kts 329°
2026-05-07 06:00 51.72340 13.62084 15266 ft 406 kts 329°
2026-05-07 06:01 51.74774 13.59855 14749 ft 399 kts 329°
2026-05-07 06:01 51.76969 13.57284 14581 ft 381 kts 316°
2026-05-07 06:01 51.78838 13.54408 14494 ft 363 kts 315°
2026-05-07 06:01 51.80417 13.51356 14418 ft 355 kts 299°
2026-05-07 06:02 51.81605 13.47821 14347 ft 359 kts 296°
2026-05-07 06:02 51.82766 13.44259 14272 ft 359 kts 296°
2026-05-07 06:02 51.83929 13.40667 14199 ft 359 kts 296°
2026-05-07 06:02 51.85085 13.37082 14109 ft 359 kts 296°
2026-05-07 06:03 51.86234 13.33513 14051 ft 358 kts 297°
2026-05-07 06:03 51.87385 13.29939 13972 ft 357 kts 297°
2026-05-07 06:03 51.88535 13.26374 13900 ft 357 kts 297°
2026-05-07 06:03 51.89666 13.22865 13823 ft 356 kts 297°
2026-05-07 06:04 51.90809 13.19309 13749 ft 355 kts 297°
2026-05-07 06:04 51.91946 13.15768 13667 ft 355 kts 297°
2026-05-07 06:04 51.93084 13.12217 13586 ft 354 kts 297°
2026-05-07 06:04 51.94219 13.08678 13507 ft 354 kts 297°
2026-05-07 06:05 51.95351 13.05148 13422 ft 353 kts 297°
2026-05-07 06:05 51.96479 13.01624 13334 ft 352 kts 297°
2026-05-07 06:05 51.97603 12.98104 13266 ft 351 kts 297°
2026-05-07 06:05 51.98726 12.94584 13053 ft 351 kts 297°
2026-05-07 06:06 51.99847 12.91112 12632 ft 344 kts 300°
2026-05-07 06:06 52.01374 12.88167 12171 ft 338 kts 321°
2026-05-07 06:06 52.03306 12.86177 12038 ft 322 kts 332°
2026-05-07 06:06 52.05241 12.84475 11908 ft 309 kts 331°
2026-05-07 06:07 52.07093 12.82841 11535 ft 300 kts 331°
2026-05-07 06:07 52.08914 12.81236 10946 ft 295 kts 331°
2026-05-07 06:07 52.10709 12.79657 10348 ft 292 kts 331°
2026-05-07 06:07 52.12482 12.78116 9795 ft 287 kts 334°
2026-05-07 06:08 52.14381 12.77291 9389 ft 283 kts 358°
2026-05-07 06:08 52.16312 12.77802 8917 ft 284 kts 22°
2026-05-07 06:08 52.17945 12.79580 8485 ft 284 kts 46°
2026-05-07 06:08 52.19001 12.82304 8008 ft 286 kts 69°
2026-05-07 06:09 52.19693 12.85304 7701 ft 282 kts 68°
2026-05-07 06:09 52.20415 12.88322 6989 ft 291 kts 68°
2026-05-07 06:09 52.21176 12.91442 6309 ft 299 kts 68°
2026-05-07 06:09 52.21948 12.94601 5767 ft 300 kts 68°
2026-05-07 06:10 52.22716 12.97752 5277 ft 298 kts 68°
2026-05-07 06:10 52.23478 13.00882 4786 ft 297 kts 68°
2026-05-07 06:10 52.24222 13.03945 4527 ft 287 kts 68°
2026-05-07 06:10 52.24937 13.06890 4469 ft 272 kts 68°
2026-05-07 06:11 52.25616 13.09688 4400 ft 258 kts 68°
2026-05-07 06:11 52.26258 13.12339 4310 ft 245 kts 68°
2026-05-07 06:11 52.26869 13.14866 4210 ft 233 kts 68°
2026-05-07 06:11 52.27445 13.17249 4047 ft 220 kts 68°
2026-05-07 06:12 52.27993 13.19523 3780 ft 212 kts 68°
2026-05-07 06:12 52.28530 13.21748 3513 ft 207 kts 68°
2026-05-07 06:12 52.29039 13.23862 3245 ft 193 kts 68°
2026-05-07 06:12 52.29511 13.25825 2993 ft 179 kts 68°
2026-05-07 06:13 52.29947 13.27639 2741 ft 163 kts 68°
2026-05-07 06:13 52.30345 13.29295 2525 ft 151 kts 68°
2026-05-07 06:13 52.30721 13.30861 2319 ft 147 kts 68°
2026-05-07 06:13 52.31093 13.32409 2129 ft 146 kts 68°
2026-05-07 06:14 52.31461 13.33944 1917 ft 144 kts 67°
2026-05-07 06:14 52.31826 13.35470 1715 ft 144 kts 67°
2026-05-07 06:14 52.32190 13.36989 1514 ft 144 kts 67°
2026-05-07 06:14 52.32554 13.38514 1314 ft 143 kts 66°
2026-05-07 06:15 52.32916 13.40028 1108 ft 143 kts 67°
2026-05-07 06:15 52.33279 13.41546 895 ft 144 kts 67°
2026-05-07 06:15 52.33643 13.43072 689 ft 144 kts 68°
2026-05-07 06:15 52.33998 13.44574 487 ft 143 kts 67°
2026-05-07 06:16 52.34359 13.46084 313 ft 143 kts 67°
2026-05-07 06:16 52.34717 13.47584 161 ft 135 kts 66°
2026-05-07 06:16 52.34980 13.48682 161 ft 70 kts 68°
2026-05-07 06:16 52.35118 13.49196 159 ft 27 kts 49°
2026-05-07 06:17 52.35252 13.49383 162 ft 24 kts 39°
2026-05-07 06:17 52.35389 13.49556 159 ft 25 kts 37°
2026-05-07 06:17 52.35485 13.49804 156 ft 27 kts 69°
2026-05-07 06:17 52.35551 13.50089 156 ft 27 kts 68°
2026-05-07 06:18 52.35621 13.50367 157 ft 27 kts 70°
2026-05-07 06:18 52.35684 13.50639 158 ft 22 kts 66°
2026-05-07 06:18 52.35756 13.50824 156 ft 17 kts 11°
2026-05-07 06:18 52.35875 13.50768 155 ft 19 kts 339°
2026-05-07 06:19 52.36004 13.50691 152 ft 20 kts 339°
2026-05-07 06:19 52.36120 13.50613 152 ft 10 kts 335°
2026-05-07 06:19 52.36151 13.50638 152 ft 6 kts 65°
2026-05-07 06:19 52.36168 13.50706 152 ft 7 kts 70°
2026-05-07 06:20 52.36179 13.50755 152 ft 0 kts 70°